Stations météo

réclame
Mon MeteoGroup
Twenthe, Pays-Bas (6290): Température de l'air & dewpoint: 14.11.2017 01:00:00 - 20.11.2017 01:00:00 (CET)Twenthe, Pays-Bas (6290): Température de l'air 5cm: 14.11.2017 01:00:00 - 20.11.2017 01:00:00 (CET)Twenthe, Pays-Bas (6290): Vitesse du vent & gusts: 14.11.2017 01:00:00 - 20.11.2017 01:00:00 (CET)Twenthe, Pays-Bas (6290): Direction du vent: 14.11.2017 01:00:00 - 20.11.2017 01:00:00 (CET)Twenthe, Pays-Bas (6290): reduced air pressure: 14.11.2017 01:00:00 - 20.11.2017 01:00:00 (CET)Twenthe, Pays-Bas (6290): visibility: 14.11.2017 01:00:00 - 20.11.2017 01:00:00 (CET)Twenthe, Pays-Bas (6290): Quantités de précipitations: 14.11.2017 01:00:00 - 20.11.2017 01:00:00 (CET)
Date & Time tt [°C] td [°C] tt 5cm [°C] ff [km/h] ff [knt] fx [km/h] fx [knt] dd ppp [hPa] vv [km] rr [mm]
20.11.2017 01:00:00 - - - - - - - - - - -
20.11.2017 00:00:00 4,5 3,1 3,5 18 10 25 14 WSW 1019,5 29 0,0
19.11.2017 23:00:00 4,5 2,9 3,6 14 8 22 12 WSW 1019,5 24 0,0
19.11.2017 22:00:00 4,2 2,7 2,8 14 8 - - WSW 1019,3 26 0,0
19.11.2017 21:00:00 4,2 2,4 3,2 14 8 29 16 W 1018,8 33 0,0
19.11.2017 20:00:00 4,7 2,8 3,5 18 10 25 14 W 1018,1 26 0,0
19.11.2017 19:00:00 5,1 2,4 3,7 14 8 - - W 1017,7 26 0,0
19.11.2017 18:00:00 5,9 2,9 4,9 14 8 40 21 W 1017,3 37 0,0
19.11.2017 17:00:00 6,1 3,2 4,6 18 10 25 14 W 1016,7 24 0,0
19.11.2017 16:00:00 6,8 3,3 5,8 18 10 - - W 1016,3 33 0,0
19.11.2017 15:00:00 7,5 3,8 6,5 18 10 43 23 WNW 1015,9 23 1,5
19.11.2017 14:00:00 7,4 4,6 6,3 18 10 58 31 WNW 1015,7 25 1,9
19.11.2017 13:00:00 7,6 4,8 7,3 18 10 - - W 1015,3 29 0,1
19.11.2017 12:00:00 8,1 4,3 8,4 22 12 32 18 W 1014,9 33 0,0
19.11.2017 11:00:00 6,8 4,4 7,0 22 12 36 19 W 1014,7 29 0,1
19.11.2017 10:00:00 5,7 3,6 5,6 18 10 - - W 1014,5 18 0,1
19.11.2017 09:00:00 4,1 2,7 3,1 18 10 29 16 WSW 1014,0 34 0,0
19.11.2017 08:00:00 3,1 2,2 2,3 18 10 32 18 WSW 1013,9 33 0,0
19.11.2017 07:00:00 4,1 2,3 3,1 22 12 - - W 1013,5 50 0,0
19.11.2017 06:00:00 3,6 2,3 2,9 18 10 25 14 WSW 1013,2 31 0,0
19.11.2017 05:00:00 4,0 2,2 3,5 18 10 29 16 W 1013,3 43 0,0
19.11.2017 04:00:00 3,9 2,1 3,0 14 8 - - WSW 1013,3 39 0,0
19.11.2017 03:00:00 3,6 2,0 2,4 14 8 22 12 WSW 1013,6 42 0,0
19.11.2017 02:00:00 3,9 2,6 3,2 11 6 18 10 WSW 1013,5 37 0,0
19.11.2017 01:00:00 4,0 2,5 3,3 14 8 - - WSW 1013,9 32 0,0
19.11.2017 00:00:00 4,0 2,5 2,4 14 8 18 10 WSW 1014,0 35 0,0
18.11.2017 23:00:00 4,6 3,2 3,7 14 8 25 14 SW 1014,2 35 0,0
18.11.2017 22:00:00 4,1 2,8 3,3 18 10 - - WSW 1014,4 31 0,0
18.11.2017 21:00:00 4,7 3,4 3,8 14 8 18 10 WSW 1014,7 34 0,0
18.11.2017 20:00:00 4,9 3,5 4,2 14 8 22 12 WSW 1014,8 42 0,0
18.11.2017 19:00:00 5,1 3,9 4,4 14 8 - - WSW 1014,9 41 0,0
18.11.2017 18:00:00 5,3 3,6 4,7 18 10 25 14 WSW 1015,3 44 0,0
18.11.2017 17:00:00 5,2 3,7 4,4 11 6 22 12 W 1015,2 50 0,0
18.11.2017 16:00:00 5,6 4,3 5,2 18 10 - - W 1015,1 42 0,0
18.11.2017 15:00:00 5,1 3,3 4,7 22 12 43 23 WNW 1014,9 9 2,5
18.11.2017 14:00:00 7,8 5,0 8,1 29 16 47 25 WSW 1014,5 29 0,0
18.11.2017 13:00:00 6,6 4,4 6,3 29 16 - - SW 1015,2 23 0,5
18.11.2017 12:00:00 6,6 4,0 6,4 25 14 40 21 SW 1016,2 14 0,1
18.11.2017 11:00:00 7,0 2,9 6,7 29 16 43 23 SW 1016,9 32 0,0
18.11.2017 10:00:00 6,2 2,3 5,8 29 16 - - SW 1017,2 36 0,0
18.11.2017 09:00:00 6,0 2,1 5,5 22 12 36 19 SW 1018,3 37 0,0
18.11.2017 08:00:00 5,9 2,0 5,3 22 12 36 19 SW 1018,8 29 0,0
18.11.2017 07:00:00 5,6 2,1 5,0 18 10 - - SW 1019,2 39 0,0
18.11.2017 06:00:00 5,6 2,0 5,0 14 8 25 14 SSW 1020,0 43 0,0
18.11.2017 05:00:00 5,7 1,9 5,0 18 10 29 16 SSW 1020,6 42 0,0
18.11.2017 04:00:00 5,6 1,9 4,9 14 8 - - SW 1021,2 40 0,0
18.11.2017 03:00:00 5,3 2,1 4,7 14 8 22 12 SW 1022,1 42 0,0
18.11.2017 02:00:00 5,3 1,9 4,5 14 8 22 12 SW 1022,7 38 0,0
18.11.2017 01:00:00 4,7 1,9 3,4 11 6 - - SW 1023,6 40 0,0
18.11.2017 00:00:00 3,1 1,2 1,1 11 6 14 8 SSW 1024,0 29 0,0
17.11.2017 23:00:00 3,1 1,3 1,3 11 6 14 8 SW 1024,5 30 0,0
17.11.2017 22:00:00 4,3 1,9 2,3 11 6 - - SSW 1024,7 32 0,0
17.11.2017 21:00:00 3,8 1,8 1,5 11 6 11 6 SSW 1025,1 30 0,0
17.11.2017 20:00:00 3,7 1,7 1,2 4 2 11 6 SSW 1025,4 31 0,0
17.11.2017 19:00:00 4,1 2,6 1,9 4 2 - - SW 1025,9 35 0,0
17.11.2017 18:00:00 3,5 2,0 0,6 4 2 11 6 SSW 1025,9 41 0,0
17.11.2017 17:00:00 5,3 1,4 3,4 7 4 11 6 S 1025,7 47 0,0
17.11.2017 16:00:00 8,3 2,0 7,6 7 4 - - WNW 1026,3 45 0,0
17.11.2017 15:00:00 9,9 2,4 10,4 14 8 22 12 WSW 1026,5 34 0,0
17.11.2017 14:00:00 9,1 3,0 8,8 14 8 22 12 WSW 1026,8 35 0,0
17.11.2017 13:00:00 9,6 2,3 10,5 7 4 - - W 1027,1 33 0,0
17.11.2017 12:00:00 8,8 4,4 9,9 4 2 7 4 SW 1027,4 27 0,0
17.11.2017 11:00:00 6,6 4,7 7,1 7 4 7 4 WSW 1027,6 22 0,0
17.11.2017 10:00:00 3,5 3,5 2,7 4 2 - - S 1027,4 3,0 0,0
17.11.2017 09:00:00 0,9 0,9 0,2 4 2 7 4 SSE 1027,3 9 0,0
17.11.2017 08:00:00 -0,3 -0,5 -2,7 0 0 4 2 N 1027,1 0,6 0,0
17.11.2017 07:00:00 -0,2 -0,4 -2,6 4 2 - - SSE 1026,4 0,2 0,0
17.11.2017 06:00:00 1,2 1,1 -1,9 0 0 4 2 N 1025,9 0,2 0,0
17.11.2017 05:00:00 2,3 2,1 -0,5 0 0 4 2 N 1025,6 0,2 0,0
17.11.2017 04:00:00 4,0 3,9 0,3 0 0 - - N 1025,2 0,3 0,0
17.11.2017 03:00:00 5,5 5,3 2,0 4 2 11 6 NW 1024,8 1,5 0,0
17.11.2017 02:00:00 7,0 6,4 5,9 7 4 11 6 W 1024,2 10 0,0
17.11.2017 01:00:00 7,9 7,4 7,6 7 4 - - WNW 1023,7 10 0,5
17.11.2017 00:00:00 9,0 7,6 8,7 11 6 25 14 NNW 1023,4 11 0,0
16.11.2017 23:00:00 9,8 9,3 9,6 14 8 25 14 WSW 1022,7 1,7 0,6
16.11.2017 22:00:00 9,5 9,1 9,3 11 6 - - SW 1022,6 2,5 0,0
16.11.2017 21:00:00 9,2 8,9 9,0 14 8 22 12 SW 1022,4 2,0 0,0
16.11.2017 20:00:00 8,7 8,6 8,7 11 6 22 12 SSW 1022,1 1,1 0,0
16.11.2017 19:00:00 8,3 8,2 8,3 11 6 - - SSW 1022,0 0,6 0,0
16.11.2017 18:00:00 8,2 7,8 8,1 11 6 18 10 SSW 1021,9 2,4 0,0
16.11.2017 17:00:00 8,1 7,5 8,1 14 8 22 12 S 1021,7 3,6 0,0
16.11.2017 16:00:00 8,4 7,4 8,3 14 8 - - SSW 1021,6 7 0,0
16.11.2017 15:00:00 8,5 7,4 8,5 14 8 29 16 S 1021,7 8 0,0
16.11.2017 14:00:00 8,7 7,1 8,8 22 12 29 16 SSW 1022,2 6 0,0
16.11.2017 13:00:00 9,0 7,6 9,1 14 8 - - S 1022,6 9 0,0
16.11.2017 12:00:00 9,0 7,7 9,2 18 10 25 14 SSW 1022,9 10 0,0
16.11.2017 11:00:00 9,6 8,6 10,5 14 8 25 14 S 1023,1 8 0,0
16.11.2017 10:00:00 8,6 8,1 8,7 14 8 - - S 1023,3 4,5 0,0
16.11.2017 09:00:00 8,5 8,2 8,4 14 8 22 12 SSW 1023,4 3,5 0,0
16.11.2017 08:00:00 8,5 8,3 8,4 14 8 25 14 S 1022,9 2,5 0,2
16.11.2017 07:00:00 8,5 8,3 8,5 14 8 - - S 1022,8 1,8 0,2
16.11.2017 06:00:00 8,4 8,3 8,4 11 6 18 10 S 1022,9 1,2 0,1
16.11.2017 05:00:00 8,4 8,3 8,5 11 6 18 10 S 1023,1 0,9 0,0
16.11.2017 04:00:00 8,7 8,6 8,7 11 6 - - S 1023,5 0,5 0,0
16.11.2017 03:00:00 8,8 8,6 8,7 11 6 14 8 S 1023,7 1,0 0,1
16.11.2017 02:00:00 8,7 8,6 8,7 11 6 18 10 S 1024,1 0,5 0,0
16.11.2017 01:00:00 8,6 8,5 8,6 7 4 - - SSE 1024,4 0,3 0,0
16.11.2017 00:00:00 8,5 8,4 8,5 11 6 18 10 S 1024,9 1,5 0,0
15.11.2017 23:00:00 8,6 8,3 8,6 7 4 14 8 S 1025,3 3,4 0,0
15.11.2017 22:00:00 8,6 8,3 8,6 7 4 - - S 1025,2 3,9 0,0
15.11.2017 21:00:00 8,7 8,1 8,5 7 4 14 8 S 1025,2 13 0,0
15.11.2017 20:00:00 8,5 8,1 8,4 7 4 7 4 S 1025,3 9 0,0
15.11.2017 19:00:00 8,5 8,1 8,3 4 2 - - SW 1025,5 8 0,0
15.11.2017 18:00:00 8,4 8,0 8,1 11 6 22 12 S 1025,2 7 0,0
15.11.2017 17:00:00 8,5 8,0 8,4 11 6 18 10 SSW 1025,3 5 0,0
15.11.2017 16:00:00 8,6 7,9 8,6 11 6 - - S 1025,3 5 0,0
15.11.2017 15:00:00 8,7 8,0 8,7 11 6 18 10 S 1025,2 4,8 0,0
15.11.2017 14:00:00 8,9 7,8 9,1 11 6 18 10 S 1025,2 6 0,0
15.11.2017 13:00:00 9,0 7,8 9,3 11 6 - - SW 1025,4 7 0,0
15.11.2017 12:00:00 8,9 8,0 9,3 11 6 22 12 S 1025,6 5 0,0
15.11.2017 11:00:00 8,7 7,8 9,1 11 6 22 12 SSW 1025,6 4,6 0,0
15.11.2017 10:00:00 8,4 7,7 8,5 11 6 - - SSW 1025,4 3,5 0,0
15.11.2017 09:00:00 8,0 7,4 7,9 14 8 22 12 SSW 1025,3 3,1 0,0
15.11.2017 08:00:00 7,8 7,3 7,7 14 8 22 12 SSW 1024,7 2,7 0,0
15.11.2017 07:00:00 7,9 7,3 7,8 11 6 - - SSW 1024,3 2,5 0,0
15.11.2017 06:00:00 7,8 7,2 7,7 11 6 22 12 SSW 1024,2 3,4 0,0
15.11.2017 05:00:00 7,9 7,3 7,7 14 8 25 14 SSW 1024,0 2,9 0,0
15.11.2017 04:00:00 7,9 7,5 7,8 11 6 - - SSW 1024,0 3,1 0,0
15.11.2017 03:00:00 8,0 7,4 7,9 11 6 25 14 SSW 1024,3 3,4 0,0
15.11.2017 02:00:00 8,1 7,5 7,9 14 8 25 14 SW 1024,2 3,7 0,0
15.11.2017 01:00:00 8,1 7,5 7,9 18 10 - - SSW 1024,0 3,1 0,0
15.11.2017 00:00:00 8,0 7,7 7,8 14 8 22 12 SSW 1023,9 2,3 0,1
14.11.2017 23:00:00 7,8 7,6 7,7 18 10 22 12 SSW 1023,9 1,5 0,0
14.11.2017 22:00:00 7,7 7,5 7,6 14 8 - - SSW 1023,7 1,1 0,1
14.11.2017 21:00:00 7,6 7,3 7,5 14 8 29 16 SSW 1023,6 1,3 0,2
14.11.2017 20:00:00 7,5 7,2 7,3 14 8 25 14 SW 1023,5 1,4 0,2
14.11.2017 19:00:00 7,4 7,0 7,2 14 8 - - SSW 1023,1 1,5 0,2
14.11.2017 18:00:00 7,3 6,8 7,1 14 8 25 14 SSW 1022,8 1,9 0,1
14.11.2017 17:00:00 7,2 6,2 7,0 18 10 32 18 SSW 1022,4 8 0,0
14.11.2017 16:00:00 7,7 5,4 7,4 18 10 - - SSW 1022,2 15 0,0
14.11.2017 15:00:00 8,0 4,8 7,6 25 14 36 19 SSW 1022,1 19 0,0
14.11.2017 14:00:00 7,8 3,9 7,6 22 12 32 18 SSW 1022,3 36 0,0
14.11.2017 13:00:00 7,5 4,0 7,4 22 12 - - SSW 1022,2 28 0,0
14.11.2017 12:00:00 7,2 4,2 7,3 22 12 36 19 SSW 1022,3 21 0,0
14.11.2017 11:00:00 6,6 4,1 6,7 22 12 32 18 SSW 1022,9 26 0,0
14.11.2017 10:00:00 5,9 4,0 5,5 14 8 - - SW 1022,5 28 0,0
14.11.2017 09:00:00 4,9 3,5 4,6 18 10 29 16 S 1022,2 26 0,0
14.11.2017 08:00:00 4,9 3,2 4,0 14 8 25 14 SSW 1022,2 22 0,0
14.11.2017 07:00:00 4,0 2,7 3,0 11 6 - - SSW 1022,3 20 0,0
14.11.2017 06:00:00 2,7 1,6 0,6 11 6 14 8 SSW 1022,0 20 0,0
14.11.2017 05:00:00 2,0 1,4 0,1 7 4 11 6 SSW 1022,2 17 0,0
14.11.2017 04:00:00 2,0 1,5 0,6 7 4 - - S 1022,4 15 0,0
14.11.2017 03:00:00 1,7 1,4 -0,6 4 2 7 4 SSW 1022,4 14 0,0
14.11.2017 02:00:00 1,3 1,1 -0,6 4 2 7 4 S 1022,5 10 0,0
14.11.2017 01:00:00 0,5 0,4 -2,6 4 2 - - S 1022,3 8 0,0

tt = Température de l'air
td = dewpoint
tt 5cm = Température de l'air 5cm
ff = Vitesse du vent
fx = gusts
dd = Direction du vent
ppp = reduced air pressure
vv = visibility
rr = Quantités de précipitations

stations d'obs. à proximité